Overview Statistics Trail Chart Weather Telemetry Raw packets
 

This is the latest recevied weather packets stored in our database for station/object SV9TNF-52. If no packets are shown the sender has not sent any weather packets the latest 10 day(s).

<< 61 62 63 64 65 66 67 >>
Time Temp. Humidity Pressure Rain* Wind** Luminosity Snow
1788251591 29.44° C 58% 1020 hPa 0 mm 4.92 m/s, 32° - -
1788251292 31.11° C 53% 1020 hPa 0 mm 1.79 m/s, 325° - -
1788250992 29.44° C 55% 1020 hPa 0 mm 5.36 m/s, 0° - -
1788250691 29.44° C 58% 1020 hPa 0 mm 12.96 m/s, 46° - -
1788250392 30° C 61% 1020 hPa 0 mm 1.79 m/s, 247° - -
1788250091 30° C 59% 1020 hPa 0 mm 8.05 m/s, 340° - -
1788249791 30.56° C 61% 1020 hPa 0 mm 3.13 m/s, 233° - -
1788249491 29.44° C 61% 1020 hPa 0 mm 4.92 m/s, 190° - -
1788249191 29.44° C 61% 1020 hPa 0 mm 3.58 m/s, 280° - -
1788248891 30.56° C 60% 1020 hPa 0 mm 2.68 m/s, 243° - -
1788248592 30.56° C 59% 1020 hPa 0 mm 4.47 m/s, 349° - -
1788248291 29.44° C 59% 1020 hPa 0 mm 8.05 m/s, 332° - -
1788247990 29.44° C 59% 1020 hPa 0 mm 4.92 m/s, 338° - -
1788247690 29.44° C 61% 1020 hPa 0 mm 4.47 m/s, 337° - -
1788247390 29.44° C 61% 1020 hPa 0 mm 3.13 m/s, 39° - -
1788247090 29.44° C 61% 1020 hPa 0 mm 6.71 m/s, 319° - -
1788246790 29.44° C 62% 1020 hPa 0 mm 4.47 m/s, 322° - -
1788246490 28.89° C 61% 1020 hPa 0 mm 7.15 m/s, 70° - -
1788246190 28.89° C 61% 1020 hPa 0 mm 5.81 m/s, 4° - -
1788245890 28.89° C 61% 1020 hPa 0 mm 5.81 m/s, 335° - -
1788245589 28.89° C 61% 1020 hPa 0 mm 3.13 m/s, 339° - -
1788245289 28.89° C 61% 1020 hPa 0 mm 6.71 m/s, 353° - -
1788244989 28.89° C 63% 1020 hPa 0 mm 3.13 m/s, 259° - -
1788244689 28.33° C 62% 1020 hPa 0 mm 8.49 m/s, 4° - -
1788244389 28.33° C 63% 1020 hPa 0 mm 5.81 m/s, 39° - -

* Rain latest hour (hover to see other rain measurements)
** Current wind speed in m/s (hover to see current wind gust speed)